Location: Taylor Dark Sky Site
(39.1017°N, 87.9564°W)
Time: 10:10:23
(UTC-05:00)

Amateur Radio Satellites - All Passes

Search period start: 30 July 2014 09:40
Search period end: 31 July 2014 09:40
Location: Taylor Dark Sky Site, 39.1017°N, 87.9564°W

Satellite Date Start Highest point End Downlink Frequencies (MHz)
Time Altitude Azimuth
Sapphire 30 Jul 09:44:39 09:50:03 64° 60° (ENE) 09:55:25 437.095 MHz 1200 baud AX-25 AFSK
Oscar 11 30 Jul 09:46:50 09:50:02 20° 94° (E) 09:53:13 145.825 FM, Beacon 2401.500 USB
FUNcube-1 30 Jul 10:13:01 10:15:02 13° 92° (E) 10:17:02 145.950 - 145.970 MHz USB
PCSat 30 Jul 10:17:59 10:23:21 63° 246° (WSW) 10:28:41 145.825 MHz
UKube-1 30 Jul 10:38:29 10:42:44 54° 287° (WNW) 10:46:58 145.840 MHz, 145.915 MHz
Oscar 11 30 Jul 11:22:23 11:26:17 33° 289° (WNW) 11:30:10 145.825 FM, Beacon 2401.500 USB
RS-15 30 Jul 11:26:35 11:33:11 18° 99° (E) 11:39:41 29.354 - 29.394 USB, Beacon 29.352 USB
HO-68 30 Jul 11:27:53 11:33:51 30° 298° (WNW) 11:39:48 435.675 MHz FM
Sapphire 30 Jul 11:29:37 11:32:54 16° 256° (WSW) 11:36:09 437.095 MHz 1200 baud AX-25 AFSK
FUNcube-1 30 Jul 11:47:39 11:51:40 46° 287° (WNW) 11:55:43 145.950 - 145.970 MHz USB
SO-50 30 Jul 12:17:37 12:22:04 80° 120° (ESE) 12:26:37 436.795 FM
KITSAT 1 30 Jul 12:36:08 12:39:39 13° 26° (NNE) 12:43:09 435.175 FM
Oscar 19 30 Jul 12:37:01 12:40:53 22° 65° (ENE) 12:44:47 437.125 CW, 437.150 USB
AO-Echo 30 Jul 12:43:18 12:45:31 13° 60° (ENE) 12:47:44 ?
Oscar 16 30 Jul 13:04:34 13:09:21 42° 70° (ENE) 13:14:10 437.025 USB, Beacon 2401.1428
JAS-1B 30 Jul 13:28:28 13:36:23 35° 60° (ENE) 13:44:52 435.800 - 435.900 CW/SSB
ITAMSAT 1 30 Jul 13:28:57 13:33:32 32° 68° (ENE) 13:38:08 435.822 SSB
RS-15 30 Jul 13:32:38 13:43:49 84° 118° (ESE) 13:54:46 29.354 - 29.394 USB, Beacon 29.352 USB
Uribyol 2 30 Jul 13:47:29 13:52:30 51° 72° (ENE) 13:57:31 436.500 FM
AO-27 30 Jul 13:48:04 13:53:05 50° 71° (ENE) 13:58:07 436.795 MHz FM
AO-7 30 Jul 13:52:18 13:53:43 11° 44° (NE) 13:55:07 29.400 - 29.500 MHz
TMSAT-1 30 Jul 13:55:56 13:59:21 18° 63° (ENE) 14:02:47 436.925 FM
SO-50 30 Jul 14:00:48 14:03:13 14° 319° (NW) 14:05:40 436.795 FM
UOSAT-12 30 Jul 14:09:40 14:14:15 78° 120° (ESE) 14:18:56 437.025 FM, 437.400 FM
Oscar 19 30 Jul 14:15:07 14:19:56 42° 261° (W) 14:24:48 437.125 CW, 437.150 USB
AO-Echo 30 Jul 14:18:13 14:23:31 85° 257° (WSW) 14:28:53 ?
Gurwin Techsat 1B 30 Jul 14:19:34 14:24:28 40° 70° (ENE) 14:29:24 435.225 FM
KITSAT 1 30 Jul 14:29:52 14:37:32 44° 51° (NE) 14:45:08 435.175 FM
Uosat F 30 Jul 14:43:47 14:44:04 10° 59° (ENE) 14:44:21 435.120 FM
Oscar 16 30 Jul 14:45:00 14:48:52 21° 266° (W) 14:52:44 437.025 USB, Beacon 2401.1428
ITAMSAT 1 30 Jul 15:08:29 15:12:59 29° 264° (W) 15:17:30 435.822 SSB
JAS-1B 30 Jul 15:17:24 15:26:09 63° 260° (W) 15:35:56 435.800 - 435.900 CW/SSB
Uribyol 2 30 Jul 15:28:44 15:32:14 18° 267° (W) 15:35:45 436.500 FM
AO-27 30 Jul 15:29:14 15:32:51 19° 267° (W) 15:36:29 436.795 MHz FM
TMSAT-1 30 Jul 15:33:34 15:38:46 59° 259° (W) 15:44:01 436.925 FM
AO-7 30 Jul 15:36:34 15:44:31 51° 65° (ENE) 15:52:29 29.400 - 29.500 MHz
OPAL 30 Jul 15:40:11 15:41:24 11° 92° (E) 15:42:37 ?
Saudisat 1A 30 Jul 15:44:54 15:49:02 38° 52° (NE) 15:53:08 436.775 MHz
RS-15 30 Jul 15:48:01 15:57:29 32° 323° (NW) 16:06:55 29.354 - 29.394 USB, Beacon 29.352 USB
UOSAT-12 30 Jul 15:52:16 15:54:59 15° 319° (NW) 15:57:44 437.025 FM, 437.400 FM
Gurwin Techsat 1B 30 Jul 16:00:16 16:04:32 24° 266° (W) 16:08:49 435.225 FM
Uosat F 30 Jul 16:16:58 16:22:01 85° 75° (ENE) 16:27:06 435.120 FM
KITSAT 1 30 Jul 16:25:25 16:32:53 43° 250° (WSW) 16:40:18 435.175 FM
JAS-2 30 Jul 17:02:47 17:08:57 27° 64° (ENE) 17:14:46 435.800 - 435.900 CW/SSB, 435.910 FM
OPAL 30 Jul 17:15:42 17:20:48 81° 287° (WNW) 17:25:57 ?
JAS-1B 30 Jul 17:15:56 17:18:34 11° 280° (W) 17:21:17 435.800 - 435.900 CW/SSB
Saudisat 1A 30 Jul 17:25:04 17:28:22 21° 249° (WSW) 17:31:39 436.775 MHz
AO-7 30 Jul 17:29:59 17:37:26 36° 262° (W) 17:44:57 29.400 - 29.500 MHz
Hamsat 30 Jul 17:34:08 17:37:56 35° 72° (ENE) 17:41:47 145.90 MHz
RS-15 30 Jul 18:08:26 18:14:54 17° 358° (N) 18:21:25 29.354 - 29.394 USB, Beacon 29.352 USB
SO-67 30 Jul 18:25:09 18:27:23 16° 69° (ENE) 18:29:37 435.3500 MHz FM
JAS-2 30 Jul 18:45:45 18:53:29 63° 259° (W) 19:00:45 435.800 - 435.900 CW/SSB, 435.910 FM
OPAL 30 Jul 18:58:25 18:58:52 10° 303° (WNW) 18:59:19 ?
Hamsat 30 Jul 19:11:15 19:14:01 17° 267° (W) 19:16:49 145.90 MHz
STRAND 1 30 Jul 19:41:51 19:46:59 80° 103° (ESE) 19:52:04 ?
SO-67 30 Jul 19:57:20 20:00:15 25° 264° (W) 20:03:11 435.3500 MHz FM
UKube-1 30 Jul 20:00:32 20:01:21 10° 62° (ENE) 20:02:09 145.840 MHz, 145.915 MHz
HO-68 30 Jul 20:07:10 20:13:31 36° 64° (ENE) 20:19:52 435.675 MHz FM
RS-15 30 Jul 20:23:22 20:32:35 29° 34° (NE) 20:41:58 29.354 - 29.394 USB, Beacon 29.352 USB
Oscar 11 30 Jul 20:41:57 20:44:18 15° 65° (ENE) 20:46:39 145.825 FM, Beacon 2401.500 USB
SO-50 30 Jul 20:50:13 20:54:53 52° 55° (NE) 20:59:35 436.795 FM
FUNcube-1 30 Jul 21:10:35 21:11:10 10° 63° (ENE) 21:11:45 145.950 - 145.970 MHz USB
MaSat-1 30 Jul 21:12:37 21:16:39 70° 296° (WNW) 21:21:23 437.345 MHz
STRAND 1 30 Jul 21:23:24 21:25:28 12° 300° (WNW) 21:27:31 ?
UKube-1 30 Jul 21:32:34 21:36:56 73° 257° (WSW) 21:41:19 145.840 MHz, 145.915 MHz
AO-40 30 Jul 21:38:56 03:49:15 40° 183° (S) 09:27:42 Beacon 2401.320
ISS 30 Jul 21:51:48 21:54:04 17° 130° (SE) 21:56:21 145.800 FM
HO-68 30 Jul 21:54:19 22:01:02 43° 261° (W) 22:07:49 435.675 MHz FM
Oscar 11 30 Jul 22:15:54 22:20:03 48° 261° (W) 22:24:14 145.825 FM, Beacon 2401.500 USB
SO-50 30 Jul 22:31:53 22:35:03 18° 250° (WSW) 22:38:14 436.795 FM
RS-15 30 Jul 22:35:30 22:46:37 88° 60° (ENE) 22:58:10 29.354 - 29.394 USB, Beacon 29.352 USB
UOSAT-12 30 Jul 22:40:28 22:45:04 49° 54° (NE) 22:49:35 437.025 FM, 437.400 FM
FUNcube-1 30 Jul 22:42:43 22:47:01 69° 259° (WSW) 22:51:15 145.950 - 145.970 MHz USB
PCSat 30 Jul 23:17:00 23:20:47 20° 105° (ESE) 23:24:35 145.825 MHz
ISS 30 Jul 23:27:17 23:30:31 47° 326° (NW) 23:33:47 145.800 FM
UOSAT-12 31 Jul 00:21:37 00:24:49 18° 251° (WSW) 00:28:00 437.025 FM, 437.400 FM
Sapphire 31 Jul 00:25:06 00:30:29 75° 116° (ESE) 00:35:54 437.095 MHz 1200 baud AX-25 AFSK
RS-15 31 Jul 00:49:48 00:57:34 22° 259° (WSW) 01:05:34 29.354 - 29.394 USB, Beacon 29.352 USB
PCSat 31 Jul 00:58:28 01:03:45 54° 302° (WNW) 01:09:04 145.825 MHz
ISS 31 Jul 01:06:12 01:07:53 13° 345° (NNW) 01:09:35 145.800 FM
Oscar 16 31 Jul 01:18:31 01:21:42 16° 92° (E) 01:24:53 437.025 USB, Beacon 2401.1428
ITAMSAT 1 31 Jul 01:45:02 01:46:50 12° 90° (E) 01:48:37 435.822 SSB
Uribyol 2 31 Jul 02:02:18 02:06:00 20° 93° (E) 02:09:40 436.500 FM
AO-27 31 Jul 02:03:14 02:06:54 19° 93° (E) 02:10:32 436.795 MHz FM
Sapphire 31 Jul 02:10:56 02:14:30 18° 315° (NW) 02:18:05 437.095 MHz 1200 baud AX-25 AFSK
Oscar 19 31 Jul 02:27:25 02:32:37 75° 103° (ESE) 02:37:47 437.125 CW, 437.150 USB
AO-Echo 31 Jul 02:27:26 02:31:58 34° 96° (E) 02:36:21 ?
Gurwin Techsat 1B 31 Jul 02:37:56 02:41:20 17° 92° (E) 02:44:44 435.225 FM
ISS 31 Jul 02:45:23 02:45:49 10° 6° (N) 02:46:14 145.800 FM
OPAL 31 Jul 02:52:56 02:56:19 19° 62° (ENE) 02:59:42 ?
Oscar 16 31 Jul 02:56:20 03:01:23 56° 287° (WNW) 03:06:26 437.025 USB, Beacon 2401.1428
JAS-1B 31 Jul 03:05:59 03:14:56 53° 97° (E) 03:22:29 435.800 - 435.900 CW/SSB
ITAMSAT 1 31 Jul 03:21:41 03:26:51 75° 286° (WNW) 03:32:00 435.822 SSB
Uribyol 2 31 Jul 03:40:45 03:45:41 46° 289° (WNW) 03:50:35 436.500 FM
AO-7 31 Jul 03:41:40 03:46:08 15° 90° (E) 03:50:33 29.400 - 29.500 MHz
AO-27 31 Jul 03:41:40 03:46:38 48° 289° (WNW) 03:51:34 436.795 MHz FM
TMSAT-1 31 Jul 03:50:30 03:55:45 62° 101° (E) 04:00:58 436.925 FM
PANSAT 31 Jul 03:59:35 04:01:21 13° 168° (SSE) 04:03:07 not established
AO-Echo 31 Jul 04:06:28 04:10:34 26° 293° (WNW) 04:14:33 ?
Oscar 19 31 Jul 04:08:49 04:11:18 14° 299° (WNW) 04:13:47 437.125 CW, 437.150 USB
Gurwin Techsat 1B 31 Jul 04:16:27 04:21:38 56° 288° (WNW) 04:26:48 435.225 FM
ISS 31 Jul 04:20:47 04:23:31 22° 26° (NNE) 04:26:14 145.800 FM
Uosat F 31 Jul 04:26:24 04:30:42 28° 96° (E) 04:34:58 435.120 FM
OPAL 31 Jul 04:30:02 04:34:48 50° 258° (WSW) 04:39:38 ?
JAS-1B 31 Jul 04:56:50 05:04:58 36° 299° (WNW) 05:12:06 435.800 - 435.900 CW/SSB
KITSAT 1 31 Jul 04:57:30 05:04:28 33° 107° (ESE) 05:11:27 435.175 FM
STRAND 1 31 Jul 05:21:09 05:23:16 13° 60° (ENE) 05:25:23 ?
AO-7 31 Jul 05:31:35 05:39:58 85° 107° (ESE) 05:48:16 29.400 - 29.500 MHz
TMSAT-1 31 Jul 05:31:52 05:35:08 17° 297° (WNW) 05:38:24 436.925 FM
MaSat-1 31 Jul 05:32:16 05:36:42 26° 54° (NE) 05:40:55 437.345 MHz
PANSAT 31 Jul 05:38:19 05:40:52 17° 181° (S) 05:43:25 not established
Saudisat 1A 31 Jul 05:52:50 05:54:41 12° 108° (ESE) 05:56:32 436.775 MHz
ISS 31 Jul 05:57:08 06:00:25 51° 223° (SW) 06:03:40 145.800 FM
JAS-2 31 Jul 05:59:33 06:03:05 17° 89° (E) 06:06:27 435.800 - 435.900 CW/SSB, 435.910 FM
Uosat F 31 Jul 06:05:04 06:09:27 31° 292° (WNW) 06:13:49 435.120 FM
KITSAT 1 31 Jul 06:51:35 06:59:29 55° 305° (NW) 07:07:25 435.175 FM
Hamsat 31 Jul 06:56:16 07:00:36 88° 104° (ESE) 07:04:57 145.90 MHz
STRAND 1 31 Jul 06:56:36 07:01:45 81° 257° (WSW) 07:06:55 ?
MaSat-1 31 Jul 07:09:15 07:14:11 42° 253° (WSW) 07:18:46 437.345 MHz
PANSAT 31 Jul 07:18:49 07:20:22 12° 193° (SSW) 07:21:56 not established
SO-67 31 Jul 07:22:16 07:25:01 22° 95° (E) 07:27:46 435.3500 MHz FM
AO-7 31 Jul 07:25:52 07:31:45 22° 306° (NW) 07:37:38 29.400 - 29.500 MHz
Saudisat 1A 31 Jul 07:29:21 07:33:43 63° 304° (WNW) 07:38:07 436.775 MHz
JAS-2 31 Jul 07:43:04 07:48:45 56° 289° (WNW) 07:53:55 435.800 - 435.900 CW/SSB, 435.910 FM
PCSat 31 Jul 08:05:28 08:08:42 16° 44° (NE) 08:11:54 145.825 MHz
KITSAT 1 31 Jul 08:52:24 08:56:56 16° 330° (NNW) 09:01:28 435.175 FM
SO-67 31 Jul 08:55:27 08:57:57 19° 290° (WNW) 09:00:27 435.3500 MHz FM
Sapphire 31 Jul 09:14:20 09:19:34 47° 57° (ENE) 09:24:46 437.095 MHz 1200 baud AX-25 AFSK
UKube-1 31 Jul 09:22:53 09:26:07 20° 95° (E) 09:29:20 145.840 MHz, 145.915 MHz
HO-68 31 Jul 09:22:54 09:29:32 40° 98° (E) 09:36:06 435.675 MHz FM
